Dale Hollow Observed Data For Previous 48 Hours

Caption
Day and Hour Reservoir Elevation (behind dam)* Tailwater Elevation (below dam)* Average Hourly Discharge*
3/18/2019 1 AM CDT 653.60 522.00 6,950
3/18/2019 2 AM CDT 653.60 522.00 6,950
3/18/2019 3 AM CDT 653.60 521.90 7,090
3/18/2019 4 AM CDT 653.55 521.85 6,940
3/18/2019 5 AM CDT 653.55 521.95 7,080
3/18/2019 6 AM CDT 653.55 521.85 7,080
3/18/2019 7 AM CDT 653.50 521.80 6,788
3/18/2019 8 AM CDT 653.50 521.90 7,208
3/18/2019 9 AM CDT 653.50 521.80 7,068
3/18/2019 10 AM CDT 653.46 521.66 6,758
3/18/2019 11 AM CDT 653.44 521.64 7,034
3/18/2019 12 PM CDT 653.44 521.74 7,184
3/18/2019 1 PM CDT 653.44 521.64 6,884
3/18/2019 2 PM CDT 653.40 521.70 7,184
3/18/2019 3 PM CDT 653.39 521.69 6,904
3/18/2019 4 PM CDT 653.34 521.54 7,010
3/18/2019 5 PM CDT 653.34 521.64 6,880
3/18/2019 6 PM CDT 653.34 521.64 6,880
3/18/2019 7 PM CDT 653.28 521.78 7,160
3/18/2019 8 PM CDT 653.28 521.78 6,740
3/18/2019 9 PM CDT 653.26 521.76 7,150
3/18/2019 10 PM CDT 653.23 521.73 6,870
3/18/2019 11 PM CDT 653.23 521.73 6,870
3/19/2019 12 AM CDT 653.23 521.73 7,010
3/19/2019 1 AM CDT 653.18 521.68 6,860
3/19/2019 2 AM CDT 653.18 521.68 6,860
3/19/2019 3 AM CDT 653.18 521.78 7,000
3/19/2019 4 AM CDT 653.13 521.73 6,975
3/19/2019 5 AM CDT 653.13 521.73 6,975
3/19/2019 6 AM CDT 653.09 521.79 6,975
3/19/2019 7 AM CDT 653.07 521.77 6,975
3/19/2019 8 AM CDT 653.07 521.87 7,035
3/19/2019 9 AM CDT 653.04 521.74 6,820
3/19/2019 10 AM CDT 653.02 521.82 7,180
3/19/2019 11 AM CDT 653.04 521.82 6,850
3/19/2019 12 PM CDT 653.02 521.82 6,941
3/19/2019 1 PM CDT 652.97 521.67 6,950
3/19/2019 2 PM CDT 652.97 521.67 6,950
3/19/2019 3 PM CDT 652.94 521.64 6,795
3/19/2019 4 PM CDT 652.92 521.62 7,070
3/19/2019 5 PM CDT 652.88 521.58 6,645
3/19/2019 6 PM CDT 652.88 521.58 6,925
3/19/2019 7 PM CDT 652.86 521.66 6,815
3/19/2019 8 PM CDT 652.87 521.67 6,815
3/19/2019 9 PM CDT 652.81 521.71 6,790
3/19/2019 10 PM CDT 652.82 521.72 6,960
3/19/2019 11 PM CDT 652.79 521.69 6,790
3/20/2019 12 AM CDT 652.78 521.68 6,960
3/20/2019 1 AM CDT 652.77 521.67 6,770
3/20/2019 2 AM CDT 652.73 521.63 6,600
3/20/2019 3 AM CDT 652.71 521.61 6,765
3/20/2019 4 AM CDT 652.71 521.61 6,595
3/20/2019 5 AM CDT 652.71 521.71 6,765
3/20/2019 6 AM CDT 652.66 521.56 6,935

Elevations are in feet above sea level. Discharges are in cubic feet per second and are reported at the end of the hour.